Hourly Data Report for February 04, 2005

TORONTO CITY
ONTARIO

43°40'00.000" N
79°24'00.000" W
112.50 m
6158355
71508
XTO

Download Data

Hourly Data (February 2005)
Hourly Data Report for February 4, 2005
TIME
LST
Temp Definition
°C
Dew Point Definition
°C
Rel Hum Definition
%
Precip. Amount Definition
mm

Wind Dir Definition
10's deg

Wind Spd Definition
km/h
Visibility Definition
km
Stn Press Definition
kPa
Hmdx Definition


Wind Chill Definition


Weather Definition


00:00 -0.5 -2.4 87   LegendMM LegendMM   101.13     LegendNANA
01:00 -0.7 -3.0 84   LegendMM LegendMM   101.13     LegendNANA
02:00 -0.6 -4.0 78   LegendMM LegendMM   101.16     LegendNANA
03:00 -1.9 -4.5 82   LegendMM LegendMM   101.18     LegendNANA
04:00 -1.8 -4.8 80   LegendMM LegendMM   101.20     LegendNANA
05:00 -2.0 -3.9 87   LegendMM LegendMM   101.28     LegendNANA
06:00 -2.9 -4.8 87   LegendMM LegendMM   101.32     LegendNANA
07:00 -2.8 -5.0 85   LegendMM LegendMM   101.39     LegendNANA
08:00 -1.8 -4.3 83   LegendMM LegendMM   101.45     LegendNANA
09:00 0.1 -4.6 71   LegendMM LegendMM   101.47     LegendNANA
10:00 1.8 -3.9 66   LegendMM LegendMM   101.49     LegendNANA
11:00 3.7 -3.6 59   LegendMM LegendMM   101.50     LegendNANA
12:00 3.6 -3.9 58   LegendMM LegendMM   101.47     LegendNANA
13:00 4.6 -2.3 61   LegendMM LegendMM   101.44     LegendNANA
14:00 2.6 -2.6 69   LegendMM LegendMM   101.37     LegendNANA
15:00 2.0 -2.1 74   LegendMM LegendMM   101.36     LegendNANA
16:00 1.6 -2.6 74   LegendMM LegendMM   101.38     LegendNANA
17:00 1.8 -3.7 67   LegendMM LegendMM   101.37     LegendNANA
18:00 1.3 -2.1 78   LegendMM LegendMM   101.39     LegendNANA
19:00 1.4 -1.5 81   LegendMM LegendMM   101.42     LegendNANA
20:00 0.6 -2.1 82   LegendMM LegendMM   101.44     LegendNANA
21:00 0.1 -2.0 86   LegendMM LegendMM   101.44     LegendNANA
22:00 0.4 -1.3 88   LegendMM LegendMM   101.40     LegendNANA
23:00 0.3 -1.5 88   LegendMM LegendMM   101.46     LegendNANA

Notes on Data Quality.

Legend

  • E = Estimated
  • M = Missing
  • NA = Not Available*
  • [empty] = Indicates an unobserved value
Date modified: